Location: Moscow
(38.8570°N, 84.2291°W)
Time: 09:41:26
(UTC+00:00)

UKube-1 - Pass Details

Date: 15 March 2026
Orbit: 527 x 530 km, 98.4° (Epoch: 19 April)

Event Time Altitude Azimuth Distance (km) Brightness Sun altitude
Rises 11:09:12 0° 9° (N) 2,674 ? -8.4°
Reaches altitude 10° 11:11:19 10° 7° (N) 1,779 ? -8.0°
Maximum altitude 11:15:07 64° 285° (WNW) 587 ? -7.3°
Drops below altitude 10° 11:18:52 10° 204° (SSW) 1,763 ? -6.5°
Sets 11:20:58 0° 201° (SSW) 2,647 ? -6.1°
